weather.gov     
National Weather Service

Regional Weather Roundup
NWS Homepage
This page is being discontinued on March 12, 2014.
The same data is available at this site. Please update your bookmarks.
Thank you, and we apologize for the inconvenience.
Please send an email to SR-SRH.Webmaster@noaa.gov with any concerns.


Current Version
Previous Version:    01  02  03  04  05  06  07  08  09  10  11  12  13  14  15  16  17  18  19  20  21  22  23  24  25  26  27  28  29  30  
   31  32  33  34  35  36  37  38  39  40  41  42  43  44  45  46  47  48  49  50  51  52  53  
[Printable]
625
ASUS42 KMHX 230722
RWRMHX
WEATHER ROUNDUP FOR EASTERN NORTH CAROLINA
NATIONAL WEATHER SERVICE NEWPORT/MOREHEAD CITY NC
300 AM EDT WED APR 23 2014

NOTE: "FAIR" INDICATES FEW OR NO CLOUDS BELOW 12,000 FEET
WITH NO SIGNIFICANT WEATHER AND/OR OBSTRUCTIONS TO VISIBILITY

NCZ015>017-031-032-045>047-102-103-230800-
NORTH COAST

CITY           SKY/WX    TMP DP  RH WIND       PRES   REMARKS
EDENTON        CLEAR     64  56  77 CALM      29.63F
ELIZABETH CITY CLEAR     60  54  80 SW9       29.62F
KITTY HAWK     PTSUNNY   66  54  65 W9        29.60F
MANTEO         MOCLDY    64  55  71 NW7       29.61F

$$

NCZ045>047-081-094-103-104-230800-
CENTRAL COAST

CITY           SKY/WX    TMP DP  RH WIND       PRES   REMARKS
FRISCO         CLOUDY    61  32  33 W9        29.63F
SWANQUARTER      N/A     66 N/A N/A SW5G10    29.62S

$$

NCZ095-097-098-100-101-230800-
SOUTHERN COAST

CITY           SKY/WX    TMP DP  RH WIND       PRES   REMARKS
BEAUFORT       CLOUDY    63  58  83 W7        29.67F
CEDAR ISLAND     N/A     64 N/A N/A SW5       29.68F
JACKSONVILLE   MOCLDY    63  60  90 W9        29.68F
NEWPORT          N/A     64  57  77 W5          N/A
PINEY ISLAND   CLOUDY    65  58  78 SW8       29.65F
WILMINGTON     PTCLDY    65  58  78 W8        29.71F


$$

NCZ011>013-027>030-043-044-078>080-089-090>093-098-230800-
COASTAL PLAIN

CITY           SKY/WX    TMP DP  RH WIND       PRES   REMARKS
AHOSKIE        CLEAR     58  53  84 CALM      29.64F
CLINTON        CLEAR     60  59  97 SW3       29.70F
ELIZABETHTOWN  PTCLDY    61  59  92 W5        29.71F
GOLDSBORO      CLEAR     59  57  93 W7        29.66F
GREENVILLE     CLEAR     63  55  77 W5        29.69S
HAVELOCK       CLOUDY    66  54  65 W12       29.68F
KENANSVILLE    PTCLDY    61  56  84 W7        29.70F
KINSTON        PTCLDY    63  55  76 SW6       29.68S
NEW BERN       MOCLDY    66  55  67 W7        29.67F
RICHLANDS      MOCLDY    61  61 100 SW6       29.69F
ROANOKE RAPIDS NOT AVBL
ROCKY MOUNT    CLEAR     61  55  81 SW6       29.66F
WASHINGTON     PTCLDY    63  56  79 W5        29.65S
WHITEVILLE     PTCLDY    63  59  87 CALM      29.72S

$$

AMZ130-135-150-152-154-156-158-170-250-252-270-ANZ085-086-088-633-658-670-230800-
MARINE OBSERVATIONS

STATION/POSITION TIME  TEMP    WIND        PRES    WAVE   SWELL
                       AIR SEA DIR/SP/G            HT/PER HT/PER
                 (UTC) (F)     (DEG/KT/KT) (MB)    (FT/S) (FT/S)
CHESAPEAKE LIGHT 0700   65     270/ 16/ 16 1002.6
BUOY 44014       0700   51 49  230/  8/  8 1001.5    4/ 9   3/ 9
DUCK             0700   63 48  260/ 11/ 14 1001.7
2E DUCK          0600      49                N/A     3/10   2/11
OREGON INLET     0700   61 60  200/  9/ 10 1002.7
BUOY 44095       0700      51                N/A     4/10   2/11
HATTERAS CG      0700   64 58  260/ 11/ 13 1003.5
DIAMOND BUOY     0700   70 76  280/ 16/ 19 1002.9
CAPE LOOKOUT     0700   64     250/ 14/ 17 1004.5
BEAUFORT LAB     0700   63 61  260/  5/ 11 1004.1
30 SE NEW RIVER  0700   68 69  260/ 16/ 17 1005.6    4/ 6   2/ 9
5 SE WRIGHTSVILL 0700   62 60  260/  6/  8 1005.8
FRYING PAN BUOY  0700   67 67  260/ 14/ 16 1006.1    4/ 6   2/ 9
BUOY 41001       NOT AVBL
BUOY 41002       NOT AVBL
BUOY 41004       0700   67 70  280/ 14/ 16 1007.4    3/ 9   2/ 9

$$




U.S. Dept. of Commerce
NOAA National Weather Service
1325 East West Highway
Silver Spring, MD 20910
E-mail: w-nws.webmaster@noaa.gov
Page last modified: May 16, 2007
NATIONAL WEATHER SERVICE: for Safety, for Work, for Fun - FOR LIFE